Regional Weather Roundup
Issued by NWS

Home | Current Version | Previous Version | Text Only | Print | Product List | Glossary On
Versions: 1 2 3 4 5 6 7 8 9 10 11 12 13 14 15 16 17 18 19 20 21 22 23 24 25 26 27 28 29 30 31 32 33 34 35 36 37 38 39 40 41 42 43 44 45 46 47 48 49 50
000
ASUS43 KLSX 070207
RWRMO

WEATHER SUMMARY FOR MISSOURI
NATIONAL WEATHER SERVICE SPRINGFIELD MO
800 PM CST FRI MAR 06 2015

NOTE: "FAIR" INDICATES FEW OR NO CLOUDS BELOW 12,000 FEET WITH NO
       SIGNIFICANT WEATHER AND/OR OBSTRUCTIONS TO VISIBILITY.
       CURRENT SKY AND/OR WEATHER CONDITIONS ARE NOT AVAILABLE FOR
       CHILLICOTHE AND FARMINGTON.

MOZ001>031-035>038-043-044-053-054-070300-
...NORTHERN AND WESTERN MISSOURI...

CITY           SKY/WX    TMP DP  RH WIND       PRES   REMARKS
KANSAS CTY INT CLEAR     43  21  41 S10       30.20S
KANSAS C DTWN  CLEAR     52  24  33 SW6       30.20S
LEE`S SUMMIT   CLEAR     48  28  46 S9        30.22S
ST JOSEPH      CLEAR     40  22  48 S6        30.18S
CHILLICOTHE      N/A     42  25  50 S5        30.21S
KIRKSVILLE     CLEAR     43  27  53 SW9       30.19S

$$
MOZ066>068-077>081-088>096-101>105-070300-
...SOUTHWEST MISSOURI...

CITY           SKY/WX    TMP DP  RH WIND       PRES   REMARKS
SPRINGFIELD    CLEAR     39  27  62 S10       30.33R
JOPLIN         PTCLDY    45  26  47 S13       30.34R

$$
MOZ032>034-039>042-045>050-055>058-069>072-070300-
...CENTRAL MISSOURI...

CITY           SKY/WX    TMP DP  RH WIND       PRES   REMARKS
COLUMBIA       CLEAR     42  28  57 SW8       30.26S
JEFFERSON CITY CLEAR     46  26  45 CALM      30.28R
ROLLA          CLEAR     40  26  57 SW12      30.28R
SEDALIA        CLEAR     44  29  55 SW10      30.27S
WHITEMAN AFB   CLEAR     38  29  70 S13       30.24S
WARRENSBURG    CLEAR     43  30  61 S8        30.25S
OSAGE BEACH    CLEAR     45  27  49 SW8       30.30S

$$
MOZ051-052-059>065-070300-
...EAST CENTRAL MISSOURI...

CITY           SKY/WX    TMP DP  RH WIND       PRES   REMARKS
ST LOUIS INTL  CLEAR     35  23  61 SE9       30.28R WCI  28
SPIRIT OF STL  CLEAR     43  24  47 SW8       30.27S
ST CHARLES     CLEAR     31  25  78 E9        30.28R WCI  23

$$
MOZ072>076-082>087-097>100-106>115-070300-
...SOUTH CENTRAL AND SOUTHEAST MISSOURI...

CITY           SKY/WX    TMP DP  RH WIND       PRES   REMARKS
CAPE GIRARDEAU CLEAR     23  14  68 S8        30.44S WCI  14
FARMINGTON     CLEAR     30  19  64 S8        30.38R WCI  23
POPLAR BLUFF   CLEAR     27  16  63 S6        30.43S WCI  20
WEST PLAINS    CLEAR     37  22  54 S6        30.36S

$$


USA.gov is the U.S. government's official web portal to all federal, state and local government web resources and services.